KY4JDC Weather Reports


time (UTC)temp
F
wind
direction
speed
knots
gust
knots
rain 1hr
in
rain 24hr
in
rain mn
in
humidity
%
barometer
mb
20260906130538 79 40 0.9 0.9 0.00 0.00 0.00 86 1016.4
20260906130033 79 87 0.0 2.6 0.00 0.00 0.00 87 1016.0
20260906125530 79 83 0.0 0.0 0.00 0.00 0.00 87 1016.1
20260906125030 78 48 0.0 0.9 0.00 0.00 0.00 87 1016.2
20260906124526 78 45 0.9 1.7 0.00 0.00 0.00 88 1016.5
20260906124021 78 56 0.0 0.9 0.00 0.00 0.00 88 1016.3
20260906123520 78 37 0.9 0.9 0.00 0.00 0.00 88 1016.1
20260906123016 78 40 0.0 0.9 0.00 0.00 0.00 88 1016.2
20260906122515 78 56 0.9 0.9 0.00 0.00 0.00 88 1016.0
20260906122011 77 44 0.0 0.9 0.00 0.00 0.00 89 1015.9
20260906121508 77 35 0.9 0.9 0.00 0.00 0.00 89 1016.0
20260906121004 77 39 0.0 0.9 0.00 0.00 0.00 89 1015.8
20260906120504 77 41 0.0 0.9 0.00 0.00 0.00 89 1015.9
20260906120001 77 42 0.0 0.0 0.00 0.00 0.00 89 1015.7
20260906115456 77 42 0.0 0.9 0.00 0.00 0.00 89 1015.9
20260906114956 77 42 0.0 0.0 0.00 0.00 0.00 89 1015.8
20260906114450 77 42 0.0 0.0 0.00 0.00 0.00 88 1015.5
20260906113947 77 42 0.0 0.9 0.00 0.00 0.00 88 1015.4
20260906113445 77 44 0.0 0.9 0.00 0.00 0.00 88 1015.3
20260906112941 77 20 0.9 0.9 0.00 0.00 0.00 88 1015.2
20260906112436 77 14 0.0 0.0 0.00 0.00 0.00 88 1015.1
20260906111932 77 14 0.0 0.0 0.00 0.00 0.00 87 1015.2
20260906111431 77 14 0.0 0.9 0.00 0.00 0.00 87 1015.2
20260906110926 77 14 0.0 0.0 0.00 0.00 0.00 87 1015.1
20260906110421 77 14 0.0 0.0 0.00 0.00 0.00 87 1015.2
20260906105920 77 14 0.0 0.0 0.00 0.00 0.00 88 1014.9
20260906105416 77 14 0.0 0.0 0.00 0.00 0.00 88 1014.8
20260906104912 77 14 0.0 0.0 0.00 0.00 0.00 88 1014.9
20260906104410 77 14 0.0 0.0 0.00 0.00 0.00 87 1014.8
20260906103909 77 14 0.0 0.0 0.00 0.00 0.00 87 1014.9
20260906103408 77 14 0.0 0.0 0.00 0.00 0.00 87 1014.6
20260906102904 77 14 0.0 0.0 0.00 0.00 0.00 87 1014.5
20260906102403 77 14 0.0 0.0 0.00 0.00 0.00 86 1014.8
20260906101858 77 14 0.0 0.0 0.00 0.00 0.00 86 1014.7
20260906101353 77 14 0.0 0.0 0.00 0.00 0.00 86 1014.3
20260906100848 77 14 0.0 0.0 0.00 0.00 0.00 86 1014.4
20260906100348 77 14 0.0 0.0 0.00 0.00 0.00 86 1014.3
20260906095843 77 14 0.0 0.0 0.00 0.00 0.00 87 1014.4
20260906095338 77 14 0.0 0.0 0.00 0.00 0.00 87 1014.4
20260906094838 77 14 0.0 0.0 0.00 0.00 0.00 87 1014.4
20260906094333 77 14 0.0 0.0 0.00 0.00 0.00 87 1014.3
20260906093829 77 14 0.0 0.0 0.00 0.00 0.00 88 1014.1
20260906093325 77 14 0.0 0.0 0.00 0.00 0.00 88 1014.1
20260906092820 77 14 0.0 0.0 0.00 0.00 0.00 88 1014.2
20260906092319 77 14 0.0 0.0 0.00 0.00 0.00 88 1014.0
20260906091815 77 14 0.0 0.0 0.00 0.00 0.00 88 1014.1
20260906091311 77 14 0.0 0.0 0.00 0.00 0.00 88 1014.1
20260906090808 77 14 0.0 0.0 0.00 0.00 0.00 88 1014.0
20260906090306 77 14 0.0 0.0 0.00 0.00 0.00 88 1014.1
20260906085807 77 14 0.0 0.0 0.00 0.00 0.00 88 1014.1
20260906085307 77 14 0.0 0.0 0.00 0.00 0.00 88 1014.1
20260906084801 77 14 0.0 0.0 0.00 0.00 0.00 87 1014.0
20260906084300 77 14 0.0 0.0 0.00 0.00 0.00 87 1014.2
20260906083755 78 14 0.0 0.0 0.00 0.00 0.00 87 1013.9
20260906083251 78 14 0.0 0.0 0.00 0.00 0.00 86 1014.0
20260906082745 78 14 0.0 0.0 0.00 0.00 0.00 85 1013.9
20260906082240 78 14 0.0 0.0 0.00 0.00 0.00 85 1014.2
20260906081736 78 14 0.0 0.0 0.00 0.00 0.00 85 1013.9
20260906081231 78 14 0.0 0.0 0.00 0.00 0.00 86 1014.1
20260906080728 78 14 0.0 0.0 0.00 0.00 0.00 86 1014.1
20260906080224 78 14 0.0 0.0 0.00 0.00 0.00 86 1014.0
20260906075718 78 14 0.0 0.0 0.00 0.00 0.00 87 1014.0
20260906075218 78 14 0.0 0.0 0.00 0.00 0.00 87 1013.8
20260906074713 78 14 0.0 0.0 0.00 0.00 0.00 87 1014.0
20260906074212 79 14 0.0 0.0 0.00 0.00 0.00 86 1014.1
20260906073707 79 14 0.0 0.0 0.00 0.00 0.00 85 1014.1
20260906073202 79 14 0.0 0.0 0.00 0.00 0.00 82 1013.8
20260906072657 79 14 0.0 0.0 0.00 0.00 0.00 82 1013.8
20260906072153 80 14 0.0 0.0 0.00 0.00 0.00 81 1013.9